Location: Bessat
(45.8735°N, 1.9924°E)
Time: 09:17:44
(UTC+00:00)

Cosmos 1733 Rocket - Pass Details

Date: 11 May 2021
Orbit: 603 x 628 km, 82.5° (Epoch: 15 June)

Event Time Altitude Azimuth Distance (km) Brightness Sun altitude
Rises 22:58:43 0° 345° (NNW) 2,870 7.9 -25.0°
Reaches altitude 10° 23:01:00 10° 340° (NNW) 1,960 6.7 -25.1°
Enters shadow 23:04:56 47° 277° (W) 805 3.6 -25.2°
